Hickory, NC

6:52 AM EDT on May 28, 2018 (GMT -0400)
Hickory Regional

Weather History for KHKY - January, 2013

Change the Weather History Date:

Sunday, January 13, 2013

  Actual Average Record
Temperature  
Mean Temperature 62 °F -  
Max Temperature 71 °F 45 °F 73 °F (1960)
Min Temperature 53 °F 27 °F 10 °F (1977)
Degree Days  
Heating Degree Days 3    
Growing Degree Days 12 (Base 50)    
Moisture  
Dew Point 56 °F    
Average Humidity 90    
Maximum Humidity 100    
Minimum Humidity 63    
Precipitation  
Precipitation 0.01 in - - ()
Sea Level Pressure  
Sea Level Pressure 30.06 in    
Wind  
Wind Speed 3 mph (SSW)    
Max Wind Speed 17 mph    
Max Gust Speed 25 mph    
Visibility 4 miles    
Events Fog    
Averages and records for this station are not official NWS values.
T = Trace of Precipitation, MM = Missing Value Source: NWS Daily Summary

Daily Weather History Graph

Daily Weather History Graph

Search for Another Location

Airport or City:

Astronomy

Jan. 13, 2013 Rise Set
Actual Time 7:35 AM EST 5:33 PM EST
Civil Twilight 7:07 AM EST 6:01 PM EST
Nautical Twilight 6:35 AM EST 6:33 PM EST
Astronomical Twilight 6:05 AM EST 7:03 PM EST
Moon 8:38 AM EST (1/13) 8:04 PM EST (1/13)
Length of Visible Light 10h 54m
Length of Day
9h 58m
Waxing Crescent, 5% of the Moon is Illuminated
Jan 13
Waxing Crescent
Jan 18
First Quarter
Jan 26
Full
Feb 3
Last Quarter
Feb 10
New

Hourly Weather History & Observations

Time (EST) Temp. Dew Point Humidity Pressure Visibility Wind Dir Wind Speed Gust Speed Precip Events Conditions
12:38 AM 57.2 °F 57.2 °F 100% 30.09 in 1.5 mi Calm Calm - N/A   Overcast
12:46 AM 57.2 °F 55.4 °F 94% 30.09 in 0.8 mi SSE 3.5 mph - N/A   Mostly Cloudy
12:53 AM 57.0 °F 55.9 °F 96% 30.05 in 1.8 mi Calm Calm - N/A   Mostly Cloudy
1:32 AM 57.2 °F 55.4 °F 94% 30.09 in 0.5 mi South 3.5 mph - N/A Fog Fog
1:40 AM 57.2 °F 55.4 °F 94% 30.09 in 2.0 mi South 3.5 mph - N/A   Mostly Cloudy
1:53 AM 57.0 °F 55.9 °F 96% 30.05 in 1.0 mi Calm Calm - N/A   Scattered Clouds
2:01 AM 57.2 °F 55.4 °F 94% 30.09 in 0.8 mi Calm Calm - N/A   Scattered Clouds
2:08 AM 55.4 °F 53.6 °F 94% 30.09 in 0.2 mi Calm Calm - N/A Fog Fog
2:16 AM 55.4 °F 53.6 °F 94% 30.09 in 0.5 mi Calm Calm - N/A Fog Fog
2:29 AM 57.2 °F 55.4 °F 94% 30.09 in 1.8 mi Calm Calm - N/A   Mostly Cloudy
2:40 AM 55.4 °F 55.4 °F 100% 30.09 in 0.2 mi Calm Calm - N/A Fog Fog
2:51 AM 53.6 °F 53.6 °F 100% 30.09 in 0.2 mi Calm Calm - N/A Fog Fog
2:53 AM 54.0 °F 52.0 °F 93% 30.05 in 0.2 mi Calm Calm - N/A Fog Fog
3:00 AM 55.4 °F 53.6 °F 94% 30.09 in 0.8 mi Calm Calm - N/A   Mist
3:32 AM 55.4 °F 53.6 °F 94% 30.08 in 0.5 mi Calm Calm - N/A Fog Fog
3:53 AM 55.0 °F 54.0 °F 96% 30.04 in 0.2 mi Calm Calm - N/A Fog Fog
4:07 AM 57.2 °F 55.4 °F 94% 30.07 in 0.5 mi Calm Calm - N/A Fog Fog
4:33 AM 57.2 °F 55.4 °F 94% 30.07 in 0.5 mi Calm Calm - N/A Fog Fog
4:53 AM 55.9 °F 55.0 °F 97% 30.02 in 0.5 mi South 3.5 mph - N/A Fog Fog
5:14 AM 57.2 °F 55.4 °F 94% 30.07 in 2.0 mi Variable 4.6 mph - N/A   Overcast
5:26 AM 55.4 °F 55.4 °F 100% 30.07 in 1.2 mi South 3.5 mph - N/A   Mostly Cloudy
5:42 AM 55.4 °F 55.4 °F 100% 30.07 in 0.5 mi Calm Calm - N/A Fog Fog
5:53 AM 55.0 °F 54.0 °F 96% 30.03 in 0.2 mi Calm Calm - N/A Fog Fog
6:19 AM 55.4 °F 55.4 °F 100% 30.07 in 0.5 mi Calm Calm - N/A Fog Fog
6:29 AM 55.4 °F 55.4 °F 100% 30.07 in 1.0 mi South 3.5 mph - N/A   Mist
6:37 AM 55.4 °F 55.4 °F 100% 30.07 in 3.0 mi South 4.6 mph - N/A   Mostly Cloudy
6:46 AM 55.4 °F 55.4 °F 100% 30.08 in 3.0 mi Calm Calm - N/A   Scattered Clouds
6:51 AM 55.4 °F 55.4 °F 100% 30.07 in 1.8 mi Calm Calm - N/A   Scattered Clouds
6:53 AM 55.9 °F 55.0 °F 97% 30.04 in 1.5 mi Calm Calm - N/A   Scattered Clouds
7:15 AM 55.4 °F 53.6 °F 94% 30.08 in 0.8 mi Calm Calm - N/A   Mist
7:27 AM 55.4 °F 55.4 °F 100% 30.09 in 1.8 mi South 5.8 mph - N/A   Scattered Clouds
7:30 AM 55.4 °F 55.4 °F 100% 30.09 in 3.0 mi South 5.8 mph - N/A   Scattered Clouds
7:53 AM 55.9 °F 55.0 °F 97% 30.06 in 5.0 mi South 5.8 mph - N/A   Scattered Clouds
8:53 AM 57.0 °F 55.9 °F 96% 30.08 in 5.0 mi Calm Calm - 0.01 in   Mostly Cloudy
9:53 AM 62.1 °F 57.9 °F 86% 30.08 in 10.0 mi South 9.2 mph - N/A   Mostly Cloudy
10:53 AM 63.0 °F 57.9 °F 84% 30.07 in 10.0 mi South 8.1 mph - N/A   Clear
11:53 AM 66.9 °F 57.9 °F 73% 30.03 in 10.0 mi South 11.5 mph 19.6 mph N/A   Clear
12:33 PM 68.0 °F 57.2 °F 68% 30.06 in 10.0 mi SSW 17.3 mph 24.2 mph N/A   Mostly Cloudy
12:40 PM 68.0 °F 57.2 °F 68% 30.06 in 10.0 mi SSW 16.1 mph 24.2 mph N/A   Scattered Clouds
12:53 PM 70.0 °F 57.0 °F 63% 30.00 in 10.0 mi SSW 16.1 mph 25.3 mph N/A   Partly Cloudy
1:53 PM 71.1 °F 57.9 °F 63% 29.99 in 10.0 mi SSW 12.7 mph 21.9 mph N/A   Partly Cloudy
2:53 PM 70.0 °F 57.9 °F 65% 30.00 in 10.0 mi SSW 12.7 mph - N/A   Mostly Cloudy
3:53 PM 69.1 °F 57.9 °F 68% 30.01 in 10.0 mi SSW 10.4 mph 19.6 mph N/A   Partly Cloudy
4:53 PM 66.9 °F 57.9 °F 73% 30.02 in 10.0 mi SSW 10.4 mph - N/A   Clear
5:53 PM 66.0 °F 57.9 °F 75% 30.03 in 10.0 mi South 9.2 mph - N/A   Partly Cloudy
7:53 PM 63.0 °F 55.9 °F 78% 30.02 in 10.0 mi SW 4.6 mph - N/A   Clear
8:53 PM 60.1 °F 55.9 °F 86% 30.01 in 10.0 mi Calm Calm - N/A   Clear
9:53 PM 61.0 °F 57.0 °F 87% 30.02 in 10.0 mi South 4.6 mph - N/A   Partly Cloudy
10:53 PM 61.0 °F 57.0 °F 87% 30.02 in 10.0 mi SW 4.6 mph - N/A   Clear
11:53 PM 62.1 °F 57.9 °F 86% 30.02 in 10.0 mi SSW 4.6 mph - N/A   Clear